This demonstration page uses our WeatherBlox Daily Observations layout. Learn more.

Left ArrowRight Arrow

34.74481, -87.66753

Hourly Observations for January 28, 2020

Temp ( °F °C ) Dew Point ( °F °C ) Humidity (%) Winds ( mph kmh ) Pressure ( in mb ) Visibility ( mi km ) Precip ( " mm )
12:53 am 00:53 Clear 38 3.3 35 1.7 89 89 Calm 30.03 1017 10 16 0.00 0.00
1:53 am 01:53 Clear 37 2.8 34 1.1 89 89 Calm 30.03 1017 9 14 0.00 0.00
2:53 am 02:53 Clear 36 2.2 34 1.1 93 93 Calm 30.04 1017 8 13 0.00 0.00
3:37 am 03:37 Clear with Mist and Fog 35 1.7 33 0.6 93 93 Calm 30.06 1018 2 3 0.00 0.00
3:48 am 03:48 Clear with Mist and Fog 36 2 34 1 93 93 Calm 30.06 1018 1 1 0.00 0.00
3:53 am 03:53 Clear with Mist and Fog 35 1.7 33 0.6 93 93 Calm 30.03 1017 2 3 0.00 0.00
3:55 am 03:55 Clear with Mist and Fog 35 1.7 33 0.6 93 93 Calm 30.06 1018 3 5 0.00 0.00
4:23 am 04:23 Clear with Mist and Fog 35 1.7 32 0 89 89 Calm 30.07 1018 2 3 0.00 0.00
4:34 am 04:34 Clear with Mist and Fog 35 1.7 32 0 89 89 Calm 30.07 1018 3 5 0.00 0.00
4:42 am 04:42 Clear with Mist and Fog 35 1.7 32 0 89 89 Calm 30.07 1018 2 3 0.00 0.00
4:51 am 04:51 Clear with Fog 34 1 32 0 93 93 Calm 30.07 1018 1 1 0.00 0.00
4:53 am 04:53 Clear with Fog 35 1.7 32 0 89 89 Calm 30.04 1017 1 1 0.00 0.00
5:03 am 05:03 Clear with Mist and Fog 34 1.1 32 0 92 92 Calm 30.07 1018 2 3 0.00 0.00
5:18 am 05:18 Clear 35 1.7 32 0 89 89 Calm 30.07 1018 7 11 0.00 0.00
5:23 am 05:23 Mostly Clear with Mist and Fog 35 1.7 32 0 89 89 Calm 30.08 1018 3 4 0.00 0.00
5:26 am 05:26 Mostly Cloudy with Mist and Fog 34 1.1 32 0 92 92 Calm 30.08 1019 1 1 0.00 0.00
5:53 am 05:53 Mostly Cloudy with Mist and Fog 34 1.1 32 0 92 92 Calm 30.06 1018 1 1 0.00 0.00
5:58 am 05:58 Partly Cloudy with Mist and Fog 33 0.6 31 -0.6 92 92 ENE 3 6 30.08 1019 1 2 0.00 0.00
6:05 am 06:05 Mostly Cloudy with Mist and Fog 32 0 30 -1.1 92 92 NE 3 6 30.08 1019 1 1 0.00 0.00
6:15 am 06:15 Clear with Fog 32 0 30 -1.1 92 92 Calm 30.09 1019 1 1 0.00 0.00
6:23 am 06:23 Clear with Mist and Fog 33 0.6 31 -0.6 92 92 Calm 30.09 1019 3 4 0.00 0.00
6:30 am 06:30 Clear with Mist and Fog 32 0 30 -1.1 92 92 SSW 6 9 30.09 1019 4 6 0.00 0.00
6:53 am 06:53 Sunny 32 0 30 -1.1 92 92 Calm 30.07 1018 8 13 0.00 0.00
7:53 am 07:53 Sunny 35 1.7 33 0.6 93 93 Calm 30.09 1019 9 14 0.00 0.00
8:53 am 08:53 Sunny 43 6.1 38 3.3 82 82 E 3 6 30.10 1019 10 16 0.00 0.00
9:53 am 09:53 Sunny 48 8.9 39 3.9 71 71 SSE 7 11 30.09 1019 10 16 0.00 0.00
10:53 am 10:53 Sunny 52 11.1 39 3.9 61 61 VRB 3 6 30.09 1019 10 16 0.00 0.00
11:53 am 11:53 Sunny 56 13.3 39 3.9 53 53 Calm 30.06 1018 10 16 0.00 0.00
12:53 pm 12:53 Sunny 57 13.9 36 2.2 45 45 Calm 30.03 1017 10 16 0.00 0.00
1:53 pm 13:53 Sunny 60 15.6 36 2.2 41 41 E 3 6 30.01 1016 10 16 0.00 0.00
2:53 pm 14:53 Sunny 62 16.7 36 2.2 38 38 Calm 29.99 1016 10 16 0.00 0.00
3:53 pm 15:53 Sunny 60 15.6 37 2.8 42 42 ENE 6 9 30.00 1016 10 16 0.00 0.00
4:53 pm 16:53 Sunny 55 12.8 40 4.4 57 57 E 5 7 30.00 1016 10 16 0.00 0.00
5:53 pm 17:53 Clear 53 11.7 37 2.8 55 55 E 3 6 30.00 1016 10 16 0.00 0.00
6:53 pm 18:53 Partly Cloudy 51 10.6 40 4.4 66 66 ESE 5 7 29.99 1016 10 16 0.00 0.00
7:53 pm 19:53 Cloudy 52 11.1 38 3.3 59 59 E 3 6 30.00 1016 10 16 0.00 0.00
8:53 pm 20:53 Mostly Cloudy 51 10.6 38 3.3 61 61 NE 3 6 30.01 1016 10 16 0.00 0.00
9:53 pm 21:53 Cloudy 50 10 38 3.3 63 63 ENE 6 9 30.00 1016 10 16 0.00 0.00
10:53 pm 22:53 Cloudy 49 9.4 38 3.3 66 66 ENE 5 7 30.01 1016 10 16 0.00 0.00
11:53 pm 23:53 Cloudy 49 9.4 37 2.8 64 64 NE 3 6 30.02 1017 10 16 0.00 0.00

Powered by AerisWeather